Back to catalog

FENGYUN 1C DEB

AliveSSO
NORAD 31721·DEBRIS·🇨🇳 China

Launched May 10, 1999 from Taiyuan Satellite Launch Center

Loading…

Next Passes (next 24 hours)

TLE

FreshSource: Space-Track

Epoch: Sep 14, 2026, 05:00 UTC

1 31721U 99025CDU 26257.20883196  .00000274  00000-0  23803-3 0  9990
2 31721  99.8064 249.0446 0316336 191.9582 232.9998 13.74122308711695

Track FENGYUN 1C DEB in real time with AllMySat

Download on the App Store